EDW1256 KIAD-KLGA

Flight info

Callsign EDW1256
Flight time 0h 37m
Altitude 21000
Route JCOBY4 AGARD SPEAK PROUD2
Aircraft A320/M-DGVW/C

Departure

Time 2026-05-07 02:56
Airport Washington Dulles International Airport (KIAD)

Arrival

Time 2026-05-07 03:33
Airport LaGuardia Airport (KLGA)
Time Latitude Longitude Altitude Speed Heading
2026-05-07 02:46 38.94481 -77.45341 291 ft 0 kts
2026-05-07 02:48 38.94480 -77.45341 298 ft 1 kts
2026-05-07 02:49 38.94465 -77.45343 301 ft 2 kts
2026-05-07 02:49 38.94448 -77.45345 298 ft 2 kts
2026-05-07 02:49 38.94431 -77.45346 298 ft 2 kts 350°
2026-05-07 02:49 38.94417 -77.45340 299 ft 0 kts 288°
2026-05-07 02:50 38.94416 -77.45340 299 ft 0 kts 288°
2026-05-07 02:52 38.94420 -77.45353 297 ft 4 kts 286°
2026-05-07 02:52 38.94420 -77.45419 298 ft 11 kts 269°
2026-05-07 02:53 38.94420 -77.45555 299 ft 20 kts 268°
2026-05-07 02:53 38.94336 -77.45610 299 ft 13 kts 182°
2026-05-07 02:53 38.94186 -77.45613 300 ft 32 kts 181°
2026-05-07 02:53 38.93963 -77.45615 298 ft 32 kts 179°
2026-05-07 02:54 38.93735 -77.45616 298 ft 30 kts 175°
2026-05-07 02:54 38.93642 -77.45517 298 ft 14 kts 148°
2026-05-07 02:54 38.93554 -77.45514 297 ft 13 kts 203°
2026-05-07 02:54 38.93487 -77.45548 296 ft 10 kts 198°
2026-05-07 02:55 38.93453 -77.45562 295 ft 6 kts 198°
2026-05-07 02:55 38.93381 -77.45660 294 ft 26 kts 270°
2026-05-07 02:55 38.93491 -77.46035 300 ft 80 kts 292°
2026-05-07 02:55 38.93769 -77.46972 306 ft 144 kts 290°
2026-05-07 02:56 38.94166 -77.48343 508 ft 176 kts 292°
2026-05-07 02:56 38.94718 -77.49750 1210 ft 176 kts 306°
2026-05-07 02:56 38.95438 -77.51034 2013 ft 178 kts 309°
2026-05-07 02:56 38.96207 -77.52340 2759 ft 190 kts 308°
2026-05-07 02:57 38.97066 -77.53709 3524 ft 204 kts 308°
2026-05-07 02:57 38.98041 -77.55144 4299 ft 221 kts 308°
2026-05-07 02:57 38.99233 -77.56536 5074 ft 245 kts 326°
2026-05-07 02:57 39.00959 -77.57117 5839 ft 276 kts 358°
2026-05-07 02:58 39.02870 -77.56334 6606 ft 307 kts 31°
2026-05-07 02:58 39.04490 -77.54401 7340 ft 330 kts 49°
2026-05-07 02:58 39.05845 -77.51911 8110 ft 351 kts 58°
2026-05-07 02:58 39.07071 -77.49155 8869 ft 369 kts 60°
2026-05-07 02:59 39.07910 -77.47171 9394 ft 379 kts 60°
2026-05-07 02:59 39.09214 -77.44136 10148 ft 392 kts 59°
2026-05-07 02:59 39.11084 -77.40057 11114 ft 406 kts 57°
2026-05-07 02:59 39.12100 -77.37964 11612 ft 413 kts 56°
2026-05-07 03:00 39.13686 -77.34815 12351 ft 422 kts 55°
2026-05-07 03:00 39.15086 -77.31456 13109 ft 432 kts 70°
2026-05-07 03:00 39.15702 -77.27665 13878 ft 437 kts 90°
2026-05-07 03:00 39.15406 -77.23765 14622 ft 434 kts 110°
2026-05-07 03:01 39.14480 -77.20096 15567 ft 432 kts 113°
2026-05-07 03:01 39.13553 -77.16440 16448 ft 433 kts 112°
2026-05-07 03:01 39.12635 -77.12752 17369 ft 433 kts 113°
2026-05-07 03:01 39.11709 -77.09066 18302 ft 432 kts 113°
2026-05-07 03:02 39.10940 -77.05331 19136 ft 436 kts 101°
2026-05-07 03:02 39.10888 -77.01386 19652 ft 452 kts 82°
2026-05-07 03:02 39.11791 -76.97429 19783 ft 469 kts 61°
2026-05-07 03:02 39.13375 -76.93695 19925 ft 485 kts 57°
2026-05-07 03:03 39.15052 -76.89845 20047 ft 499 kts 57°
2026-05-07 03:03 39.16761 -76.85890 20166 ft 510 kts 58°
2026-05-07 03:03 39.18483 -76.81857 20306 ft 520 kts 58°
2026-05-07 03:03 39.20226 -76.77734 20390 ft 528 kts 58°
2026-05-07 03:04 39.21989 -76.73528 20523 ft 535 kts 58°
2026-05-07 03:04 39.23754 -76.69297 20636 ft 542 kts 58°
2026-05-07 03:04 39.25557 -76.64975 20786 ft 546 kts 58°
2026-05-07 03:04 39.27366 -76.60642 21019 ft 549 kts 58°
2026-05-07 03:05 39.29163 -76.56355 21262 ft 551 kts 58°
2026-05-07 03:05 39.30992 -76.51998 21487 ft 553 kts 58°
2026-05-07 03:05 39.32833 -76.47611 21688 ft 556 kts 58°
2026-05-07 03:05 39.34680 -76.43220 21880 ft 558 kts 58°
2026-05-07 03:06 39.36537 -76.38810 22071 ft 560 kts 58°
2026-05-07 03:06 39.38400 -76.34378 22279 ft 561 kts 58°
2026-05-07 03:06 39.40241 -76.29971 22871 ft 555 kts 58°
2026-05-07 03:06 39.42063 -76.25575 23442 ft 550 kts 58°
2026-05-07 03:07 39.43854 -76.21229 23895 ft 548 kts 58°
2026-05-07 03:07 39.45680 -76.16812 23594 ft 563 kts 58°
2026-05-07 03:07 39.47553 -76.12297 23249 ft 576 kts 58°
2026-05-07 03:07 39.49453 -76.07711 23263 ft 578 kts 58°
2026-05-07 03:08 39.51333 -76.03144 23669 ft 572 kts 58°
2026-05-07 03:08 39.53175 -75.98651 23836 ft 572 kts 58°
2026-05-07 03:08 39.55068 -75.94031 23895 ft 575 kts 58°
2026-05-07 03:08 39.56926 -75.89500 23888 ft 579 kts 58°
2026-05-07 03:09 39.58824 -75.84882 23892 ft 581 kts 58°
2026-05-07 03:09 39.60717 -75.80260 23892 ft 583 kts 58°
2026-05-07 03:09 39.62619 -75.75597 23889 ft 584 kts 58°
2026-05-07 03:09 39.64517 -75.70930 23889 ft 585 kts 58°
2026-05-07 03:10 39.66418 -75.66253 23886 ft 586 kts 58°
2026-05-07 03:10 39.68316 -75.61574 23887 ft 587 kts 58°
2026-05-07 03:10 39.70212 -75.56894 23888 ft 587 kts 58°
2026-05-07 03:10 39.72113 -75.52197 23891 ft 587 kts 58°
2026-05-07 03:11 39.74015 -75.47494 23890 ft 587 kts 58°
2026-05-07 03:11 39.75911 -75.42799 23887 ft 588 kts 58°
2026-05-07 03:11 39.77806 -75.38103 23881 ft 588 kts 58°
2026-05-07 03:11 39.79707 -75.33380 23881 ft 588 kts 58°
2026-05-07 03:12 39.81573 -75.28730 23882 ft 588 kts 58°
2026-05-07 03:12 39.83496 -75.23941 23892 ft 588 kts 58°
2026-05-07 03:12 39.85363 -75.19290 23884 ft 588 kts 58°
2026-05-07 03:12 39.87254 -75.14573 23883 ft 588 kts 58°
2026-05-07 03:13 39.89144 -75.09841 23888 ft 588 kts 59°
2026-05-07 03:13 39.91026 -75.05121 23889 ft 588 kts 59°
2026-05-07 03:13 39.92893 -75.00432 23875 ft 578 kts 59°
2026-05-07 03:13 39.94719 -74.95823 23395 ft 564 kts 59°
2026-05-07 03:14 39.96493 -74.91332 22864 ft 552 kts 59°
2026-05-07 03:14 39.98233 -74.86932 22304 ft 541 kts 59°
2026-05-07 03:14 40.01612 -74.78378 21231 ft 524 kts 59°
2026-05-07 03:15 40.03342 -74.74246 20716 ft 513 kts 52°
2026-05-07 03:15 40.05538 -74.70679 20180 ft 499 kts 42°
2026-05-07 03:15 40.07875 -74.67365 19677 ft 493 kts 43°
2026-05-07 03:15 40.10170 -74.64070 19175 ft 487 kts 43°
2026-05-07 03:16 40.12430 -74.60801 18692 ft 482 kts 44°
2026-05-07 03:16 40.14661 -74.57564 18208 ft 477 kts 44°
2026-05-07 03:16 40.16873 -74.54354 17663 ft 472 kts 44°
2026-05-07 03:16 40.19061 -74.51193 17119 ft 468 kts 44°
2026-05-07 03:17 40.21256 -74.48081 16595 ft 463 kts 43°
2026-05-07 03:17 40.23491 -74.45111 16049 ft 452 kts 41°
2026-05-07 03:17 40.25724 -74.42296 15554 ft 438 kts 39°
2026-05-07 03:17 40.27945 -74.39582 15036 ft 437 kts 39°
2026-05-07 03:18 40.30171 -74.36878 14529 ft 435 kts 39°
2026-05-07 03:18 40.32374 -74.34177 14012 ft 435 kts 40°
2026-05-07 03:18 40.34565 -74.31444 13498 ft 433 kts 41°
2026-05-07 03:18 40.36733 -74.28703 12949 ft 431 kts 41°
2026-05-07 03:19 40.38874 -74.25973 12418 ft 429 kts 41°
2026-05-07 03:19 40.41007 -74.23244 11880 ft 426 kts 41°
2026-05-07 03:19 40.43122 -74.20540 11365 ft 423 kts 41°
2026-05-07 03:19 40.45224 -74.17861 10851 ft 420 kts 41°
2026-05-07 03:20 40.47290 -74.15227 10342 ft 405 kts 40°
2026-05-07 03:20 40.49266 -74.12698 9779 ft 391 kts 40°
2026-05-07 03:20 40.51165 -74.10270 9117 ft 380 kts 39°
2026-05-07 03:20 40.53180 -74.08107 8460 ft 367 kts 32°
2026-05-07 03:21 40.55241 -74.06221 7803 ft 356 kts 28°
2026-05-07 03:21 40.57303 -74.04505 7180 ft 346 kts 26°
2026-05-07 03:21 40.59334 -74.02874 6557 ft 338 kts 26°
2026-05-07 03:21 40.61319 -74.01279 5922 ft 331 kts 27°
2026-05-07 03:22 40.63255 -73.99696 5261 ft 323 kts 27°
2026-05-07 03:22 40.65134 -73.98141 4621 ft 316 kts 28°
2026-05-07 03:22 40.66974 -73.96607 3959 ft 309 kts 28°
2026-05-07 03:22 40.68764 -73.95110 3308 ft 302 kts 29°
2026-05-07 03:23 40.70514 -73.93641 2732 ft 292 kts 29°
2026-05-07 03:23 40.72151 -73.92172 2300 ft 279 kts 40°
2026-05-07 03:23 40.73134 -73.90081 2029 ft 264 kts 72°
2026-05-07 03:23 40.73440 -73.87770 1851 ft 248 kts 82°
2026-05-07 03:24 40.73803 -73.85651 1637 ft 227 kts 55°
2026-05-07 03:24 40.74890 -73.84423 1463 ft 194 kts 13°
2026-05-07 03:24 40.76098 -73.84418 1211 ft 162 kts 340°
2026-05-07 03:24 40.77011 -73.85253 306 ft 174 kts 304°
2026-05-07 03:25 40.77611 -73.86563 27 ft 150 kts 304°
2026-05-07 03:25 40.78113 -73.87601 29 ft 120 kts 303°
2026-05-07 03:25 40.78619 -73.88645 275 ft 149 kts 304°
2026-05-07 03:25 40.79258 -73.89794 942 ft 162 kts 313°
2026-05-07 03:26 40.80150 -73.90794 1518 ft 183 kts 318°
2026-05-07 03:26 40.81131 -73.91916 2003 ft 186 kts 317°
2026-05-07 03:26 40.82102 -73.93061 2586 ft 187 kts 308°
2026-05-07 03:26 40.82606 -73.94622 3085 ft 196 kts 270°
2026-05-07 03:27 40.82180 -73.96429 3650 ft 220 kts 236°
2026-05-07 03:27 40.80981 -73.97797 3952 ft 246 kts 213°
2026-05-07 03:27 40.79381 -73.98797 3894 ft 266 kts 208°
2026-05-07 03:27 40.77637 -73.99788 3640 ft 272 kts 207°
2026-05-07 03:28 40.75899 -74.00784 3388 ft 274 kts 207°
2026-05-07 03:28 40.74155 -74.01800 3144 ft 274 kts 207°
2026-05-07 03:28 40.72361 -74.02457 3017 ft 269 kts 186°
2026-05-07 03:28 40.70556 -74.02158 3019 ft 256 kts 164°
2026-05-07 03:29 40.69033 -74.01002 3025 ft 255 kts 140°
2026-05-07 03:29 40.68035 -73.99086 3020 ft 252 kts 108°
2026-05-07 03:29 40.67961 -73.96865 2861 ft 239 kts 71°
2026-05-07 03:29 40.68770 -73.95083 2748 ft 221 kts 37°
2026-05-07 03:30 40.69997 -73.93913 2583 ft 217 kts 34°
2026-05-07 03:30 40.71089 -73.92566 2420 ft 213 kts 43°
2026-05-07 03:30 40.71908 -73.90951 2140 ft 211 kts 64°
2026-05-07 03:30 40.72278 -73.89169 1888 ft 197 kts 77°
2026-05-07 03:31 40.72533 -73.87425 1652 ft 191 kts 74°
2026-05-07 03:31 40.72828 -73.85758 1390 ft 180 kts 67°
2026-05-07 03:31 40.73399 -73.84394 1139 ft 163 kts 45°
2026-05-07 03:31 40.74267 -73.83522 886 ft 154 kts 15°
2026-05-07 03:32 40.76750 -73.84793 240 ft 143 kts 303°
2026-05-07 03:32 40.77274 -73.85869 34 ft 135 kts 304°
2026-05-07 03:33 40.77709 -73.86758 17 ft 81 kts 302°
2026-05-07 03:33 40.77904 -73.87170 19 ft 42 kts 302°
2026-05-07 03:33 40.77964 -73.87377 19 ft 12 kts 251°
2026-05-07 03:33 40.77930 -73.87460 20 ft 10 kts 289°
2026-05-07 03:34 40.77997 -73.87593 19 ft 21 kts 305°
2026-05-07 03:34 40.78036 -73.87735 19 ft 12 kts 228°
2026-05-07 03:34 40.77954 -73.87804 20 ft 13 kts 213°
2026-05-07 03:34 40.77887 -73.87862 23 ft 13 kts 212°
2026-05-07 03:35 40.77784 -73.87946 23 ft 19 kts 213°
2026-05-07 03:35 40.77666 -73.88048 24 ft 24 kts 212°
2026-05-07 03:35 40.77496 -73.88187 21 ft 30 kts 211°
2026-05-07 03:35 40.77439 -73.88291 22 ft 14 kts 261°
2026-05-07 03:36 40.77431 -73.88323 22 ft 1 kts 245°
2026-05-07 03:36 40.77414 -73.88333 20 ft 0 kts 212°
2026-05-07 03:36 40.77407 -73.88341 21 ft 6 kts 231°
2026-05-07 03:36 40.77407 -73.88354 20 ft 0 kts 256°
2026-05-07 03:37 40.76909 -73.85117 163 ft 140 kts 303°
2026-05-07 03:38 40.77553 -73.86440 17 ft 116 kts 302°
2026-05-07 03:38 40.73635 -73.84053 1126 ft 159 kts 38°
2026-05-07 03:38 40.76953 -73.85211 149 ft 142 kts 302°
2026-05-07 03:38 40.77610 -73.86556 15 ft 106 kts 303°
2026-05-07 03:39 40.77900 -73.87162 19 ft 41 kts 302°
2026-05-07 03:39 40.77959 -73.87388 21 ft 13 kts 239°
2026-05-07 03:39 40.76818 -73.84930 203 ft 139 kts 304°
2026-05-07 03:39 40.77429 -73.86188 21 ft 124 kts 303°
2026-05-07 03:40 40.77809 -73.86973 21 ft 49 kts 302°
2026-05-07 03:40 40.77971 -73.87328 19 ft 18 kts 289°